Weather History for Limon, CO

Change the Weather History Date:

Sunday, December 4, 2011

  Actual Average Record
Temperature  
Mean Temperature 13 °F -  
Max Temperature 27 °F - 72 °F (2007)
Min Temperature -1 °F - -6 °F (2013)
Degree Days  
Heating Degree Days 52    
Month to date heating degree days 188  
Cooling Degree Days 0    
Month to date cooling degree days 0  
Moisture  
Dew Point 9 °F    
Average Humidity 73    
Maximum Humidity 95    
Minimum Humidity 50    
Precipitation  
Precipitation T in - 0.06 in (2008)
Month to date precipitation 0.12  
Year to date precipitation  
Sea Level Pressure  
Sea Level Pressure 30.28 in    
Wind  
Wind Speed 8 mph (North)    
Max Wind Speed 26 mph    
Max Gust Speed 32 mph    
Visibility 10 miles    
Events Snow    
T = Trace of Precipitation, MM = Missing Value Source: NWS Daily Summary

Daily Weather History Graph

Daily Weather History Graph

Search for Another Location

Airport:

Trip Planner

Search our weather history database for the weather conditions in past years. The results will help you decide how hot, cold, wet, or windy it might be!

Date:

Astronomy

Dec. 04, 2011 Rise Set
Actual Time 6:57 AM MST 4:31 PM MST
Civil Twilight 6:28 AM MST 5:01 PM MST
Nautical Twilight 5:54 AM MST 5:34 PM MST
Astronomical Twilight 5:22 AM MST 6:07 PM MST
Moon 1:01 PM MST (12/4) 1:26 AM MST (12/4)
Length of Visible Light 10h 33m
Length of Day
9h 33m
Waxing Gibbous, 72% of the Moon is Illuminated
Dec 4
Waxing Gibbous
Dec 10
Full
Dec 17
Last Quarter
Dec 24
New
Dec 31
First Quarter

Hourly Weather History & Observations

Time (MST) Temp. Windchill Dew Point Humidity Pressure Visibility Wind Dir Wind Speed Gust Speed Precip Events Conditions
12:55 AM 9.0 °F - 6.1 °F 88% 30.16 in 10.0 mi Calm Calm - N/A   Overcast
1:55 AM 9.0 °F -0.9 °F 6.1 °F 88% 30.16 in 10.0 mi North 5.8 mph - N/A   Overcast
2:55 AM 10.0 °F 3.6 °F 7.0 °F 87% 30.15 in 10.0 mi North 3.5 mph - N/A   Mostly Cloudy
4:55 AM 1.9 °F - -0.0 °F 91% 30.21 in 10.0 mi Calm Calm - N/A   Scattered Clouds
5:55 AM 1.9 °F -5.6 °F -0.9 °F 88% 30.23 in 10.0 mi NNW 3.5 mph - N/A   Clear
6:55 AM 10.9 °F 2.9 °F 8.1 °F 88% 30.21 in 10.0 mi West 4.6 mph - N/A   Overcast
7:55 AM 14.0 °F 6.5 °F 10.9 °F 88% 30.25 in 10.0 mi North 4.6 mph - N/A   Overcast
9:55 AM 19.9 °F 14.9 °F 14.0 °F 78% 30.25 in 10.0 mi NW 3.5 mph - N/A   Overcast
10:55 AM 24.1 °F 19.7 °F 15.1 °F 69% 30.25 in 10.0 mi NW 3.5 mph - N/A   Partly Cloudy
11:55 AM 26.1 °F 15.6 °F 10.0 °F 51% 30.20 in 10.0 mi North 11.5 mph - N/A   Partly Cloudy
12:55 PM 26.1 °F 15.6 °F 12.0 °F 55% 30.20 in 10.0 mi NNW 11.5 mph - N/A   Clear
1:55 PM 25.0 °F 11.7 °F 12.0 °F 58% 30.23 in 10.0 mi North 17.3 mph 20.7 mph N/A   Clear
2:55 PM 21.9 °F 11.0 °F 10.9 °F 63% 30.25 in 10.0 mi North 10.4 mph - N/A   Clear
3:55 PM 19.9 °F 12.1 °F 12.9 °F 74% 30.31 in 10.0 mi NNW 5.8 mph - N/A   Mostly Cloudy
4:02 PM 21.2 °F 12.6 °F 12.2 °F 68% 30.11 in 10.0 mi North 6.9 mph - N/A   Mostly Cloudy
4:51 PM 19.4 °F 7.9 °F 12.2 °F 74% 30.13 in 10.0 mi North 10.4 mph - N/A   Scattered Clouds
4:55 PM 19.9 °F 8.6 °F 12.9 °F 74% 30.34 in 10.0 mi North 10.4 mph - N/A   Scattered Clouds
5:55 PM 18.0 °F 6.9 °F 12.9 °F 81% 30.38 in 10.0 mi North 9.2 mph - N/A   Partly Cloudy
6:55 PM 18.0 °F 2.6 °F 12.9 °F 81% 30.38 in 10.0 mi North 17.3 mph 21.9 mph N/A   Partly Cloudy
7:55 PM 17.1 °F 2.0 °F 10.9 °F 77% 30.40 in 10.0 mi North 16.1 mph - N/A   Partly Cloudy
8:55 PM 15.1 °F -3.3 °F 10.0 °F 80% 30.43 in 10.0 mi North 23.0 mph 31.1 mph N/A   Overcast
9:55 PM 12.9 °F -4.9 °F 8.1 °F 81% 30.43 in 4.0 mi North 19.6 mph - 0.00 in Snow Light Snow
10:03 PM 12.2 °F -3.1 °F 6.8 °F 79% 30.28 in 5.0 mi North 13.8 mph - 0.00 in Snow Light Snow
10:53 PM 10.4 °F -8.6 °F 5.0 °F 79% 30.30 in 10.0 mi North 20.7 mph - 0.00 in   Overcast
10:55 PM 10.0 °F -9.1 °F 5.0 °F 80% 30.47 in 10.0 mi North 20.7 mph - 0.00 in   Overcast
11:31 PM 10.4 °F -9.5 °F 3.2 °F 73% 30.30 in 10.0 mi North 23.0 mph 27.6 mph N/A   Overcast
11:55 PM 9.0 °F -11.4 °F 3.9 °F 80% 30.46 in 10.0 mi North 23.0 mph 29.9 mph N/A   Overcast